LZ2SLL-13 Weather Reports


time (UTC)temp
C
wind
direction
speed
KPH
gust
KPH
rain 1hr
cm
rain 24hr
cm
rain mn
cm
humidity
%
barometer
mb
20260506182726 11 90 1.6 1.6 0.00 0.00 0.00 89
20260506182225 11 155 1.6 3.2 0.00 0.00 0.00 90
20260506181725 11 139 0.0 0.0 0.00 0.00 0.00 90
20260506181224 11 118 0.0 0.0 0.00 0.00 0.00 89
20260506180723 11 119 1.6 1.6 0.00 0.00 0.00 89
20260506180222 11 85 1.6 1.6 0.00 0.00 0.00 90
20260506175722 11 103 1.6 1.6 0.00 0.00 0.00 89
20260506175221 11 123 1.6 1.6 0.00 0.00 0.00 88
20260506174720 11 113 0.0 0.0 0.00 0.00 0.00 88
20260506174220 11 118 0.0 0.0 0.00 0.00 0.00 88
20260506173719 11 87 0.0 1.6 0.00 0.00 0.00 88
20260506173218 11 94 1.6 1.6 0.00 0.00 0.00 87
20260506172717 11 72 0.0 0.0 0.00 0.00 0.00 87
20260506172217 11 131 1.6 1.6 0.00 0.00 0.00 86
20260506171716 11 118 0.0 0.0 0.00 0.00 0.00 86
20260506171215 11 122 0.0 1.6 0.00 0.00 0.00 87
20260506170715 12 121 1.6 1.6 0.00 0.00 0.00 86
20260506170214 12 102 0.0 0.0 0.00 0.00 0.00 86
20260506165713 12 150 1.6 1.6 0.00 0.00 0.00 84
20260506165212 12 107 1.6 1.6 0.00 0.00 0.00 83
20260506164712 12 109 0.0 1.6 0.00 0.00 0.00 82
20260506164211 13 122 1.6 1.6 0.00 0.00 0.00 80
20260506163702 13 137 1.6 1.6 0.00 0.00 0.00 79
20260506163202 13 144 3.2 3.2 0.00 0.00 0.00 77
20260506162701 13 116 1.6 1.6 0.00 0.00 0.00 75
20260506162200 14 154 3.2 3.2 0.00 0.00 0.00 73
20260506161659 14 11 1.6 1.6 0.00 0.00 0.00 71
20260506161159 14 87 1.6 3.2 0.00 0.00 0.00 73
20260506160658 15 109 0.0 1.6 0.00 0.00 0.00 71
20260506160157 15 146 3.2 3.2 0.00 0.00 0.00 69
20260506155657 14 99 3.2 3.2 0.00 0.00 0.00 68
20260506155156 15 174 4.8 6.4 0.00 0.00 0.00 68
20260506154655 15 164 1.6 3.2 0.00 0.00 0.00 66
20260506154155 15 101 1.6 1.6 0.00 0.00 0.00 69
20260506153654 15 136 3.2 3.2 0.00 0.00 0.00 67
20260506153153 15 90 1.6 1.6 0.00 0.00 0.00 66
20260506152652 15 25 1.6 1.6 0.00 0.00 0.00 66
20260506152151 15 151 3.2 3.2 0.00 0.00 0.00 65
20260506151651 15 125 1.6 1.6 0.00 0.00 0.00 64
20260506151150 15 154 1.6 3.2 0.00 0.00 0.00 67
20260506150649 14 201 4.8 6.4 0.00 0.00 0.00 67
20260506150149 15 196 3.2 4.8 0.00 0.00 0.00 67
20260506145648 15 166 3.2 4.8 0.00 0.00 0.00 65
20260506145147 15 196 1.6 3.2 0.00 0.00 0.00 66
20260506144646 15 158 3.2 4.8 0.00 0.00 0.00 64
20260506144146 15 103 1.6 3.2 0.00 0.00 0.00 66
20260506143645 16 136 4.8 4.8 0.00 0.00 0.00 64
20260506143144 16 179 4.8 4.8 0.00 0.00 0.00 61
20260506142644 16 152 4.8 4.8 0.00 0.00 0.00 61
20260506142143 15 152 1.6 3.2 0.00 0.00 0.00 62
20260506141642 15 177 6.4 8.0 0.00 0.00 0.00 66
20260506141141 15 205 4.8 8.0 0.00 0.00 0.00 62
20260506140641 16 158 4.8 6.4 0.00 0.00 0.00 59
20260506140140 16 184 3.2 3.2 0.00 0.00 0.00 58
20260506135639 17 167 0.0 3.2 0.00 0.00 0.00 56
20260506135139 16 136 3.2 3.2 0.00 0.00 0.00 58
20260506134638 16 77 3.2 4.8 0.00 0.00 0.00 58
20260506134137 16 155 4.8 8.0 0.00 0.00 0.00 61
20260506133636 15 131 6.4 8.0 0.00 0.00 0.00 61
20260506133136 16 153 4.8 4.8 0.00 0.00 0.00 59
20260506132635 17 243 1.6 3.2 0.00 0.00 0.00 55
20260506132134 15 156 3.2 4.8 0.00 0.00 0.00 61
20260506131634 17 157 4.8 3.2 0.00 0.00 0.00 55
20260506131133 17 228 1.6 3.2 0.00 0.00 0.00 56
20260506130632 16 115 6.4 8.0 0.00 0.00 0.00 56
20260506130131 16 108 4.8 6.4 0.00 0.00 0.00 56
20260506125631 15 155 4.8 4.8 0.00 0.00 0.00 58
20260506125130 15 197 9.7 11.3 0.00 0.00 0.00 56
20260506124630 16 185 4.8 4.8 0.00 0.00 0.00 60
20260506124129 16 180 6.4 8.0 0.00 0.00 0.00 59
20260506123628 16 175 8.0 8.0 0.00 0.00 0.00 54
20260506123127 16 180 3.2 3.2 0.00 0.00 0.00 55
20260506122627 16 135 6.4 9.7 0.00 0.00 0.00 56
20260506122126 16 149 4.8 6.4 0.00 0.00 0.00 56
20260506121626 16 155 4.8 6.4 0.00 0.00 0.00 58
20260506121125 16 147 4.8 6.4 0.00 0.00 0.00 56
20260506120624 16 177 4.8 8.0 0.00 0.00 0.00 58
20260506120123 17 101 1.6 3.2 0.00 0.00 0.00 53
20260506115623 16 151 8.0 8.0 0.00 0.00 0.00 58
20260506115122 16 200 3.2 8.0 0.00 0.00 0.00 57
20260506114621 16 9 4.8 6.4 0.00 0.00 0.00 60
20260506114121 15 201 6.4 8.0 0.00 0.00 0.00 60
20260506113620 15 157 4.8 8.0 0.00 0.00 0.00 63
20260506113120 16 186 6.4 8.0 0.00 0.00 0.00 59
20260506112618 16 174 1.6 1.6 0.00 0.00 0.00 56
20260506112118 15 172 8.0 9.7 0.00 0.00 0.00 61
20260506111617 16 147 4.8 8.0 0.00 0.00 0.00 58
20260506111116 16 128 3.2 6.4 0.00 0.00 0.00 60
20260506110615 16 163 3.2 4.8 0.00 0.00 0.00 58
20260506110115 16 204 3.2 3.2 0.00 0.00 0.00 59
20260506105614 16 185 6.4 8.0 0.00 0.00 0.00 55
20260506105113 16 179 4.8 6.4 0.00 0.00 0.00 55
20260506104612 16 145 4.8 8.0 0.00 0.00 0.00 55
20260506104112 15 170 6.4 6.4 0.00 0.00 0.00 62
20260506103611 15 186 3.2 4.8 0.00 0.00 0.00 66
20260506103110 15 124 3.2 4.8 0.00 0.00 0.00 64
20260506102610 15 189 4.8 6.4 0.00 0.00 0.00 69
20260506102109 15 166 4.8 6.4 0.00 0.00 0.00 68
20260506101608 15 175 6.4 8.0 0.00 0.00 0.00 63
20260506101107 15 167 1.6 4.8 0.00 0.00 0.00 65
20260506100607 14 203 6.4 8.0 0.00 0.00 0.00 65
20260506100106 15 160 9.7 9.7 0.00 0.00 0.00 63
20260506095606 15 181 3.2 4.8 0.00 0.00 0.00 67
20260506095105 15 160 1.6 3.2 0.00 0.00 0.00 66
20260506094604 15 180 8.0 11.3 0.00 0.00 0.00 67
20260506094103 15 164 4.8 6.4 0.00 0.00 0.00 63
20260506093603 14 162 9.7 9.7 0.00 0.00 0.00 67
20260506093102 14 187 9.7 12.9 0.00 0.00 0.00 66
20260506092602 14 203 8.0 9.7 0.00 0.00 0.00 65
20260506092101 15 155 3.2 3.2 0.00 0.00 0.00 67
20260506091600 14 150 8.0 8.0 0.00 0.00 0.00 71
20260506091059 14 110 6.4 9.7 0.00 0.00 0.00 66
20260506090559 15 193 8.0 8.0 0.00 0.00 0.00 67
20260506090058 14 107 8.0 9.7 0.00 0.00 0.00 67
20260506085557 15 262 3.2 3.2 0.00 0.00 0.00 69
20260506085057 13 183 6.4 9.7 0.00 0.00 0.00 77
20260506084556 14 156 4.8 4.8 0.00 0.00 0.00 73
20260506084055 13 199 6.4 8.0 0.00 0.00 0.00 75
20260506083554 14 113 1.6 1.6 0.00 0.00 0.00 75
20260506083054 13 153 4.8 8.0 0.00 0.00 0.00 77
20260506082553 12 201 4.8 6.4 0.00 0.00 0.00 78
20260506082052 13 174 1.6 4.8 0.00 0.00 0.00 76
20260506081551 13 186 4.8 8.0 0.00 0.00 0.00 75
20260506081051 13 197 3.2 3.2 0.00 0.00 0.00 78
20260506080550 14 186 8.0 9.7 0.00 0.00 0.00 74
20260506073045 13 180 4.8 4.8 0.00 0.00 0.00 77
20260506072544 13 176 3.2 3.2 0.00 0.00 0.00 77
20260506072044 13 182 4.8 6.4 0.00 0.00 0.00 78
20260506071543 13 189 4.8 8.0 0.00 0.00 0.00 78
20260506071042 13 150 8.0 11.3 0.00 0.00 0.00 78
20260506070542 13 177 4.8 6.4 0.00 0.00 0.00 77
20260506062035 12 152 4.8 3.2 0.00 0.00 0.00 79
20260506061534 12 191 3.2 4.8 0.00 0.00 0.00 77
20260506061034 13 160 1.6 3.2 0.00 0.00 0.00 65
20260506060533 13 137 3.2 6.4 0.00 0.00 0.00 68
20260506051025 12 44 3.2 3.2 0.00 0.00 0.00 74
20260506050524 12 160 1.6 1.6 0.00 0.00 0.00 72
20260506045022 11 131 1.6 3.2 0.00 0.00 0.00 65
20260506044521 12 136 1.6 1.6 0.00 0.00 0.00 56
20260506044021 11 141 1.6 3.2 0.00 0.00 0.00 57
20260506043520 12 154 1.6 3.2 0.00 0.00 0.00 52
20260506043019 12 71 0.0 1.6 0.00 0.00 0.00 51
20260506042519 12 91 0.0 0.0 0.00 0.00 0.00 49
20260506042018 12 111 0.0 0.0 0.00 0.00 0.00 48
20260506041517 13 124 1.6 1.6 0.00 0.00 0.00 42
20260506041016 13 142 1.6 1.6 0.00 0.00 0.00 40
20260506040516 13 128 0.0 0.0 0.00 0.00 0.00 37
20260506040015 13 111 0.0 0.0 0.00 0.00 0.00 39
20260506035514 13 151 1.6 1.6 0.00 0.00 0.00 41
20260506035014 13 107 0.0 0.0 0.00 0.00 0.00 40
20260506034513 13 133 1.6 3.2 0.00 0.00 0.00 41
20260506034012 13 120 0.0 0.0 0.00 0.00 0.00 37
20260506033512 13 346 3.2 3.2 0.00 0.00 0.00 37
20260506033011 13 29 1.6 3.2 0.00 0.00 0.00 39
20260506032510 13 104 0.0 0.0 0.00 0.00 0.00 40
20260506032010 13 111 0.0 0.0 0.00 0.00 0.00 40
20260506031509 13 346 4.8 6.4 0.00 0.00 0.00 38
20260506031008 13 327 4.8 4.8 0.00 0.00 0.00 38
20260506030507 13 303 6.4 6.4 0.00 0.00 0.00 39
20260506030007 13 332 4.8 8.0 0.00 0.00 0.00 40
20260506025506 13 319 4.8 4.8 0.00 0.00 0.00 40
20260506025005 13 307 4.8 8.0 0.00 0.00 0.00 39
20260506024505 13 301 4.8 4.8 0.00 0.00 0.00 39
20260506024004 13 325 6.4 8.0 0.00 0.00 0.00 40
20260506023503 13 333 4.8 4.8 0.00 0.00 0.00 41
20260506023002 13 331 3.2 6.4 0.00 0.00 0.00 41
20260506022500 13 301 4.8 4.8 0.00 0.00 0.00 42
20260506021959 13 325 4.8 8.0 0.00 0.00 0.00 43
20260506021459 13 317 3.2 3.2 0.00 0.00 0.00 44
20260506020958 12 273 4.8 6.4 0.00 0.00 0.00 45
20260506020457 12 326 4.8 8.0 0.00 0.00 0.00 44
20260506015956 12 316 4.8 6.4 0.00 0.00 0.00 45
20260506015456 13 323 4.8 8.0 0.00 0.00 0.00 45
20260506014955 12 303 4.8 6.4 0.00 0.00 0.00 46
20260506014454 12 266 4.8 4.8 0.00 0.00 0.00 46
20260506013954 12 297 3.2 3.2 0.00 0.00 0.00 48
20260506013453 12 356 4.8 6.4 0.00 0.00 0.00 47
20260506012952 12 321 4.8 8.0 0.00 0.00 0.00 47
20260506012452 12 319 3.2 4.8 0.00 0.00 0.00 47
20260506011951 12 330 3.2 3.2 0.00 0.00 0.00 47
20260506011450 12 312 3.2 3.2 0.00 0.00 0.00 46
20260506010949 12 320 3.2 4.8 0.00 0.00 0.00 45
20260506010449 12 296 4.8 4.8 0.00 0.00 0.00 45
20260506005948 12 324 4.8 4.8 0.00 0.00 0.00 47
20260506005447 12 336 3.2 3.2 0.00 0.00 0.00 47
20260506004438 12 270 4.8 3.2 0.00 0.00 0.00 47
20260506003937 12 298 3.2 4.8 0.00 0.00 0.00 47
20260506003437 12 302 1.6 3.2 0.00 0.00 0.00 48
20260506002936 12 321 3.2 4.8 0.00 0.00 0.00 47
20260506002435 12 287 3.2 4.8 0.00 0.00 0.00 47
20260506001935 12 289 3.2 8.0 0.00 0.00 0.00 48
20260506001434 12 331 4.8 6.4 0.00 0.00 0.00 48
20260506000933 12 304 4.8 6.4 0.00 0.00 0.00 47
20260506000432 12 339 3.2 4.8 0.00 0.00 0.00 47
20260505235932 12 349 3.2 3.2 0.00 0.00 0.00 47
20260505235431 12 14 3.2 3.2 0.00 0.00 0.00 46
20260505234930 12 353 1.6 1.6 0.00 0.00 0.00 46
20260505234430 12 0 3.2 3.2 0.00 0.00 0.00 46
20260505233929 12 327 3.2 3.2 0.00 0.00 0.00 45
20260505233428 12 325 3.2 3.2 0.00 0.00 0.00 45
20260505232928 12 321 3.2 3.2 0.00 0.00 0.00 47
20260505232427 12 317 6.4 8.0 0.00 0.00 0.00 48
20260505231926 11 171 1.6 1.6 0.00 0.00 0.00 52
20260505231426 11 37 1.6 1.6 0.00 0.00 0.00 53
20260505230925 11 130 1.6 1.6 0.00 0.00 0.00 53
20260505225923 12 4 1.6 3.2 0.00 0.00 0.00 49
20260505225423 12 316 3.2 3.2 0.00 0.00 0.00 48
20260505224414 12 343 3.2 3.2 0.00 0.00 0.00 48
20260505223913 12 120 0.0 0.0 0.00 0.00 0.00 49
20260505223412 12 349 4.8 4.8 0.00 0.00 0.00 47
20260505222911 12 43 1.6 1.6 0.00 0.00 0.00 47
20260505222411 12 44 0.0 0.0 0.00 0.00 0.00 47
20260505221910 12 45 0.0 1.6 0.00 0.00 0.00 46
20260505221409 13 35 1.6 1.6 0.00 0.00 0.00 47
20260505220908 12 35 1.6 1.6 0.00 0.00 0.00 48
20260505220408 12 34 1.6 1.6 0.00 0.00 0.00 48
20260505215907 12 34 1.6 1.6 0.00 0.00 0.00 48
20260505215406 12 29 1.6 3.2 0.00 0.00 0.00 48
20260505214905 12 34 1.6 1.6 0.00 0.00 0.00 49
20260505214405 12 51 1.6 1.6 0.00 0.00 0.00 49
20260505213904 12 38 1.6 1.6 0.00 0.00 0.00 49
20260505213403 12 84 0.0 0.0 0.00 0.00 0.00 51
20260505212903 12 52 0.0 0.0 0.00 0.00 0.00 51
20260505212402 12 51 1.6 1.6 0.00 0.00 0.00 52
20260505211901 12 59 1.6 1.6 0.00 0.00 0.00 53
20260505211400 12 60 0.0 0.0 0.00 0.00 0.00 52
20260505210859 12 41 1.6 1.6 0.00 0.00 0.00 54
20260505210359 11 58 1.6 1.6 0.00 0.00 0.00 56
20260505205858 11 58 1.6 1.6 0.00 0.00 0.00 58
20260505205357 11 59 0.0 0.0 0.00 0.00 0.00 60
20260505204841 11 52 0.0 0.0 0.00 0.00 0.00 61
20260505204340 11 19 1.6 1.6 0.00 0.00 0.00 62
20260505203839 11 40 1.6 1.6 0.00 0.00 0.00 64
20260505203338 11 354 3.2 3.2 0.00 0.00 0.00 64
20260505202837 11 4 1.6 1.6 0.00 0.00 0.00 66
20260505202337 11 56 1.6 3.2 0.00 0.00 0.00 66
20260505201836 11 359 1.6 3.2 0.00 0.00 0.00 67
20260505201335 11 90 1.6 1.6 0.00 0.00 0.00 66
20260505200834 10 118 0.0 0.0 0.00 0.00 0.00 69
20260505200334 10 127 0.0 0.0 0.00 0.00 0.00 68
20260505195833 11 127 0.0 0.0 0.00 0.00 0.00 69
20260505195332 11 127 0.0 0.0 0.00 0.00 0.00 68
20260505194831 11 112 0.0 1.6 0.00 0.00 0.00 67
20260505194330 11 68 0.0 0.0 0.00 0.00 0.00 65
20260505193830 11 63 1.6 1.6 0.00 0.00 0.00 65
20260505193329 11 36 1.6 3.2 0.00 0.00 0.00 65
20260505192828 11 54 1.6 1.6 0.00 0.00 0.00 65
20260505192327 11 56 1.6 3.2 0.00 0.00 0.00 66
20260505191826 11 55 1.6 1.6 0.00 0.00 0.00 71
20260505191326 11 40 1.6 1.6 0.00 0.00 0.00 72
20260505190826 11 83 1.6 1.6 0.00 0.00 0.00 72
20260505190324 11 90 0.0 0.0 0.00 0.00 0.00 72
20260505185823 11 90 0.0 0.0 0.00 0.00 0.00 72
20260505185323 11 112 0.0 0.0 0.00 0.00 0.00 71
20260505184822 11 125 1.6 1.6 0.00 0.00 0.00 70
20260505184321 11 90 0.0 0.0 0.00 0.00 0.00 69
20260505183820 11 81 0.0 0.0 0.00 0.00 0.00 70
20260505183319 11 56 0.0 0.0 0.00 0.00 0.00 71